Date,TemperatureHighF,TemperatureAvgF,TemperatureLowF,DewpointHighF,DewpointAvgF,DewpointLowF,HumidityHigh,HumidityAvg,HumidityLow,PressureMaxIn,PressureMinIn,WindSpeedMaxMPH,WindSpeedAvgMPH,GustSpeedMaxMPH,PrecipitationSumIn
2013-1-1,38,32,20,25,17,6,67,54,42,29.97,29.76,13,5,24,0.01
2013-1-2,29,22,13,16,7,1,65,55,48,30.14,29.94,20,5,22,0.00
2013-1-3,25,16,6,10,-1,-6,61,48,28,30.18,30.04,11,4,22,0.00
2013-1-4,38,31,20,23,19,10,72,61,49,30.03,29.85,16,3,28,0.00
2013-1-5,41,35,31,23,19,15,67,54,35,30.30,29.89,13,3,20,0.00
2013-1-6,43,36,29,28,25,18,86,65,52,30.27,29.98,13,3,17,0.00
2013-1-7,38,35,29,29,25,18,85,69,45,30.45,30.00,12,2,18,0.00
2013-1-8,47,38,29,29,27,25,89,65,46,30.41,30.30,12,3,21,0.00
2013-1-9,45,40,32,35,29,26,80,67,53,30.44,30.03,11,3,20,0.00
2013-1-10,47,42,36,27,23,21,59,47,37,30.57,30.07,19,6,33,0.00
2013-1-11,40,37,32,36,28,23,91,71,60,30.56,30.27,7,2,8,0.13
2013-1-12,45,42,38,42,40,36,96,92,88,30.28,30.17,3,1,7,0.01
2013-1-13,53,47,43,50,45,41,96,93,89,30.19,30.03,9,3,11,0.00
2013-1-14,61,53,43,52,42,26,94,70,37,30.29,29.89,13,5,20,0.00
2013-1-15,42,39,36,26,24,21,61,55,51,30.35,30.26,6,2,10,0.00
2013-1-16,36,33,30,32,29,21,94,85,55,30.29,29.86,7,2,9,0.32
2013-1-17,42,36,30,32,26,13,92,70,49,30.13,29.88,18,4,24,0.16
2013-1-18,30,23,18,11,-1,-9,47,35,26,30.50,30.10,15,4,23,0.00
2013-1-19,49,38,22,32,21,4,71,53,36,30.43,29.94,17,4,28,0.00
2013-1-20,54,42,29,33,24,8,71,50,31,29.96,29.58,21,8,29,0.00
2013-1-21,29,25,23,20,9,3,86,53,37,30.14,29.84,14,4,23,0.00
2013-1-22,24,21,14,19,7,-4,87,58,33,30.12,29.80,15,6,21,0.00
2013-1-23,16,11,8,-1,-9,-13,58,40,28,30.18,30.11,15,6,24,0.00
2013-1-24,20,11,4,-8,-11,-13,51,37,23,30.26,30.09,19,7,29,0.00
2013-1-25,23,16,9,12,-8,-13,82,36,22,30.35,30.11,14,4,22,0.00
2013-1-26,24,18,13,12,2,-8,83,53,28,30.27,30.05,18,4,23,0.00
2013-1-27,30,21,13,2,-1,-6,59,40,24,30.50,30.27,13,6,21,0.00
2013-1-28,30,26,21,27,11,0,92,58,29,30.49,30.05,7,2,12,0.00
2013-1-29,35,31,26,32,28,23,93,88,81,30.24,30.05,6,2,8,0.14
2013-1-30,61,50,34,57,48,32,95,91,82,30.20,29.51,21,6,27,0.14
2013-1-31,61,49,32,58,36,13,90,65,34,29.63,29.02,32,10,39,0.50
2013-2-1,32,29,23,16,7,2,53,40,30,30.12,29.63,14,6,25,0.00
2013-2-2,29,25,19,11,5,1,51,44,36,30.30,30.09,11,4,18,0.00
2013-2-3,27,25,23,21,19,11,83,78,52,30.10,29.77,9,2,13,0.00
2013-2-4,29,25,22,21,10,4,84,55,35,29.98,29.76,20,6,28,0.00
2013-2-5,27,25,22,24,12,7,88,60,46,30.07,29.98,10,3,17,0.00
2013-2-6,38,31,26,25,19,4,90,64,36,30.33,29.96,15,4,23,0.03
2013-2-7,29,25,20,18,3,-2,68,39,29,30.57,30.34,9,3,15,0.00
2013-2-8,33,30,19,30,26,17,96,86,69,30.53,29.61,21,7,38,0.00
2013-2-9,20,18,14,19,15,8,93,90,78,30.22,29.58,14,5,28,0.00
2013-2-10,39,25,14,15,6,2,77,47,22,30.44,30.23,10,3,18,0.00
2013-2-11,46,36,25,44,30,9,95,79,50,30.39,29.64,8,2,11,0.28
2013-2-12,44,40,35,39,29,25,93,66,50,29.91,29.64,17,5,26,0.01
2013-2-13,42,36,32,29,24,22,76,62,48,29.91,29.73,8,3,14,0.00
2013-2-14,43,37,33,29,22,19,77,57,39,30.04,29.75,10,2,13,0.00
2013-2-15,51,40,31,35,31,23,92,72,52,30.05,29.95,12,4,16,0.00
2013-2-16,39,36,32,34,28,17,90,74,52,29.99,29.75,9,2,15,0.02
2013-2-17,31,22,17,19,10,0,88,63,40,29.73,29.41,25,8,38,0.00
2013-2-18,32,23,15,2,0,-4,51,38,22,30.20,29.71,20,9,33,0.01
2013-2-19,47,38,25,43,24,2,94,59,36,30.21,29.62,9,3,17,0.47
2013-2-20,44,33,27,41,19,8,90,59,38,29.82,29.56,24,7,30,0.00
2013-2-21,32,28,25,15,12,9,63,52,41,30.20,29.81,19,6,24,0.00
2013-2-22,38,32,26,25,21,15,72,64,52,30.43,30.22,10,3,14,0.00
2013-2-23,38,35,32,34,29,24,93,77,68,30.38,29.96,8,3,11,0.28
2013-2-24,38,35,31,37,33,29,94,93,92,29.95,29.72,11,3,18,0.73
2013-2-25,41,35,30,32,29,27,94,80,63,30.29,29.93,7,1,10,0.17
2013-2-26,42,37,32,33,30,27,90,76,57,30.38,30.20,12,3,14,0.00
2013-2-27,41,40,39,40,38,33,96,93,78,30.20,29.59,19,8,33,1.66
2013-2-28,46,39,34,38,35,33,96,86,68,29.69,29.56,7,2,11,0.00
2013-3-1,41,39,36,35,30,27,87,72,60,29.72,29.57,13,2,15,0.00
2013-3-2,42,38,34,29,26,24,71,64,55,29.71,29.66,9,3,16,0.00
2013-3-3,41,36,33,32,28,24,88,73,65,29.68,29.60,10,4,14,0.00
2013-3-4,40,34,31,28,23,20,83,64,49,29.77,29.61,16,6,25,0.00
2013-3-5,43,40,32,34,30,22,79,68,55,30.11,29.78,10,3,18,0.00
2013-3-6,39,38,35,35,33,29,89,82,66,30.15,30.08,24,10,32,0.13
2013-3-7,37,32,31,31,30,28,94,89,73,30.10,30.02,20,4,26,0.18
2013-3-8,42,34,29,31,27,21,95,79,47,30.18,29.97,9,1,32,0.23
2013-3-9,41,37,33,31,26,21,83,67,51,30.39,30.18,13,3,18,0.11
2013-3-10,40,36,32,31,30,28,86,79,70,30.45,30.37,9,3,11,0.00
2013-3-11,53,42,36,40,36,32,90,79,60,30.38,30.20,10,4,14,0.00
2013-3-12,55,48,41,53,46,39,94,92,89,30.21,29.77,13,4,18,0.33
2013-3-13,52,46,40,51,30,19,94,58,30,29.82,29.73,14,5,21,0.00
2013-3-14,39,33,23,23,14,5,60,47,37,29.88,29.74,15,6,26,0.00
2013-3-15,41,30,20,26,11,2,67,46,24,29.91,29.67,14,5,24,0.00
2013-3-16,40,34,30,26,13,5,67,44,25,29.91,29.70,10,3,18,0.00
2013-3-17,37,32,27,20,8,3,56,38,24,30.36,29.92,13,4,23,0.00
2013-3-18,35,28,21,26,9,-2,90,46,28,30.51,30.29,9,3,13,0.00
2013-3-19,36,32,29,35,31,26,96,95,90,30.28,29.64,20,7,30,0.75
2013-3-20,38,32,26,26,20,16,89,62,42,29.86,29.74,16,5,27,0.02
2013-3-21,36,32,30,29,22,15,91,67,46,29.86,29.65,8,2,10,0.00
2013-3-22,39,34,29,28,19,14,86,56,36,29.78,29.64,15,4,18,0.00
2013-3-23,43,36,30,22,18,15,69,50,33,29.82,29.67,22,7,26,0.00
2013-3-24,47,39,32,30,23,19,72,53,37,29.85,29.77,11,3,21,0.00
2013-3-25,42,39,35,35,30,25,76,71,62,29.81,29.56,13,4,22,0.00
2013-3-26,51,42,34,32,24,18,89,53,27,29.82,29.57,8,3,17,0.04
2013-3-27,52,44,35,31,23,20,66,44,29,29.90,29.77,11,4,20,0.00
2013-3-28,46,42,38,34,32,28,85,68,50,30.05,29.90,11,2,14,0.00
2013-3-29,56,48,40,33,31,27,70,54,34,30.08,30.00,10,3,17,0.00
2013-3-30,56,48,40,32,24,12,68,43,18,30.14,30.04,7,3,14,0.00
2013-3-31,59,50,37,40,25,19,75,41,21,30.16,29.80,15,4,22,0.01
2013-4-1,60,46,36,47,36,10,94,69,32,29.83,29.54,20,6,28,0.21
2013-4-2,39,35,31,16,11,7,49,38,27,29.98,29.83,18,7,29,0.00
2013-4-3,45,37,31,18,11,6,57,36,21,30.19,29.97,21,7,28,0.00
2013-4-4,56,43,31,25,15,9,54,35,16,30.34,30.10,12,5,18,0.00
2013-4-5,60,46,38,29,26,20,68,48,23,30.10,29.66,11,4,22,0.00
2013-4-6,46,39,33,25,9,-2,53,31,15,30.38,29.92,12,4,27,0.00
2013-4-7,52,45,33,40,28,12,79,54,32,30.38,30.05,16,5,29,0.00
2013-4-8,64,52,46,43,39,35,87,64,34,30.14,29.99,12,3,14,0.00
2013-4-9,70,54,48,51,44,37,90,69,38,30.13,29.90,12,4,25,0.04
2013-4-10,58,50,46,47,43,41,88,78,62,30.05,29.91,10,2,12,0.16
2013-4-11,50,46,43,46,40,33,94,81,63,30.18,29.86,8,3,16,0.06
2013-4-12,43,39,37,38,35,29,93,84,65,30.21,29.82,23,6,27,0.50
2013-4-13,50,42,36,39,36,33,92,80,58,29.97,29.78,10,3,19,0.04
2013-4-14,51,47,43,40,31,25,76,56,36,30.25,29.95,13,4,20,0.00
2013-4-15,50,46,39,39,33,27,71,62,49,30.44,30.25,10,3,15,0.00
2013-4-16,62,52,41,50,41,34,87,67,45,30.45,30.11,16,5,26,0.00
2013-4-17,67,59,53,52,37,26,82,48,23,30.37,30.10,11,4,18,0.00
2013-4-18,64,54,48,43,34,26,71,49,31,30.47,30.19,15,5,19,0.00
2013-4-19,74,63,53,63,57,44,95,82,59,30.19,29.71,21,7,30,0.00
2013-4-20,66,55,46,62,40,23,92,62,33,30.25,29.65,15,6,23,0.55
2013-4-21,51,43,37,29,22,17,60,44,28,30.73,30.25,15,4,20,0.00
2013-4-22,47,43,39,35,30,25,70,61,42,30.81,30.64,17,6,21,0.00
2013-4-23,42,41,40,40,38,31,93,87,68,30.64,30.16,15,5,20,0.16
2013-4-24,72,54,42,51,45,40,94,74,38,30.15,29.84,14,4,18,0.01
2013-4-25,64,56,49,52,36,23,88,52,21,30.30,29.88,13,4,22,0.03
2013-4-26,53,49,46,42,36,27,85,61,41,30.47,30.30,15,5,17,0.00
2013-4-27,61,52,44,42,36,27,86,56,31,30.46,30.34,11,3,14,0.00
2013-4-28,66,55,44,41,35,27,76,49,29,30.39,30.26,12,4,17,0.00
2013-4-29,69,57,49,46,36,12,82,51,15,30.32,30.23,12,4,18,0.00
2013-4-30,64,56,48,39,29,11,62,40,13,30.41,30.30,19,3,19,0.00
2013-5-1,63,56,48,38,33,24,62,42,25,30.53,30.41,11,2,13,0.00
2013-5-2,72,56,49,46,41,35,80,60,27,30.53,30.41,19,4,25,0.00
2013-5-3,55,49,45,43,40,39,82,72,62,30.57,30.42,16,4,18,0.00
2013-5-4,52,49,45,43,40,37,79,70,62,30.41,30.36,13,4,18,0.00
2013-5-5,54,48,42,43,40,37,86,73,53,30.37,30.31,12,4,14,0.00
2013-5-6,58,50,41,50,45,39,95,84,64,30.34,30.20,9,2,14,0.00
2013-5-7,75,62,48,57,51,46,89,69,48,30.22,30.13,10,3,14,0.00
2013-5-8,67,61,57,61,57,54,93,87,77,30.25,30.10,11,3,18,0.35
2013-5-9,67,59,56,59,57,54,96,93,74,30.09,29.94,9,2,11,0.95
2013-5-16,81,74,69,38,30,-100,26,21,18,29.84,29.66,15,-27,30,0.00
2013-5-17,68,60,55,46,41,35,65,49,30,30.25,29.85,12,3,18,0.00
2013-5-18,70,61,51,47,44,39,78,55,33,30.35,30.26,11,3,13,0.00
2013-5-19,68,57,52,54,49,46,92,77,52,30.39,30.28,10,2,17,0.08
2013-5-20,81,72,64,63,58,-100,87,68,52,30.06,29.95,10,2,15,0.04
2013-5-21,71,60,52,61,56,49,94,87,71,30.05,29.92,14,3,17,0.01
2013-5-22,64,55,51,59,52,49,95,89,80,30.09,29.93,11,3,13,0.05
2013-5-23,76,65,54,68,61,52,97,87,70,29.97,29.86,13,3,23,0.06
2013-5-24,71,63,50,66,60,48,94,91,77,29.86,29.70,11,3,17,1.22
2013-5-25,52,48,42,50,46,38,96,91,84,29.85,29.73,16,4,24,0.44
2013-5-26,58,49,40,41,38,36,90,68,46,30.14,29.76,14,6,28,0.05
2013-5-27,72,60,46,41,37,30,79,47,22,30.21,30.11,13,4,20,0.00
2013-5-28,67,61,52,53,46,37,76,60,39,30.29,30.20,11,3,14,0.00
2013-5-29,71,63,59,63,59,53,94,87,75,30.24,30.04,7,2,10,0.95
2013-5-30,88,78,64,68,65,62,95,68,46,30.12,30.04,14,4,17,0.01
2013-5-31,95,84,71,67,64,61,78,55,33,30.12,29.97,10,3,17,0.00
2013-6-1,93,82,71,67,64,62,73,56,37,30.02,29.89,15,4,20,0.00
2013-6-2,89,78,69,68,65,63,85,66,43,29.92,29.77,15,5,28,0.00
2013-6-3,78,70,66,67,63,42,91,78,41,29.89,29.79,11,3,13,0.79
2013-6-4,72,64,55,45,42,39,57,46,36,30.12,29.86,13,4,20,0.00
2013-6-5,73,65,56,49,45,39,69,49,33,30.23,30.13,10,3,14,0.00
2013-6-6,73,65,57,55,49,39,74,57,32,30.23,30.14,9,3,16,0.00
2013-6-7,60,56,54,56,53,48,95,90,73,30.17,29.86,12,4,19,3.00
2013-6-8,79,64,54,63,57,53,96,80,57,30.04,29.64,15,4,18,0.69
2013-6-9,80,74,62,58,54,51,82,52,37,30.20,30.04,13,4,17,0.00
2013-6-10,69,63,58,58,56,54,95,78,61,30.25,30.07,10,4,12,0.71
2013-6-11,64,59,56,58,56,54,96,92,81,30.07,29.62,11,4,19,1.46
2013-6-12,70,63,56,58,54,52,95,75,54,29.85,29.60,20,4,25,0.04
2013-6-13,69,60,53,56,52,50,92,77,51,29.85,29.71,8,2,14,0.72
2013-6-14,75,62,52,56,52,48,94,74,44,29.79,29.68,13,3,18,1.25
2013-6-15,79,70,61,54,46,39,72,44,24,29.97,29.80,10,3,17,0.00
2013-6-16,76,70,61,62,52,44,78,54,37,29.98,29.75,10,3,19,0.00
2013-6-17,86,72,63,62,59,55,90,67,34,29.95,29.81,11,3,27,0.18
2013-6-18,72,64,58,61,58,56,92,83,61,29.99,29.92,10,3,15,0.71
2013-6-19,72,65,58,57,51,42,90,63,36,30.19,29.95,11,2,13,0.01
2013-6-20,79,68,57,56,51,47,81,57,33,30.30,30.18,10,3,14,0.00
2013-6-21,84,73,60,64,57,53,78,60,35,30.30,30.22,8,3,15,0.00
2013-6-22,85,74,65,61,58,55,69,58,39,30.26,30.16,12,3,19,0.00
2013-6-23,91,78,67,71,64,55,75,62,48,30.20,30.03,13,4,20,0.00
2013-6-24,94,82,72,71,69,67,88,67,43,30.06,29.90,9,4,18,0.32
2013-6-25,92,81,72,69,67,65,85,63,41,29.96,29.76,14,4,18,0.00
2013-6-26,84,76,68,70,67,65,93,76,58,29.89,29.75,6,3,12,0.03
2013-6-27,68,64,61,65,63,60,96,94,87,29.91,29.81,9,4,13,0.01
2013-6-28,82,71,62,72,67,61,97,88,68,29.81,29.53,17,5,26,0.51
2013-6-29,83,75,71,70,69,67,94,81,60,29.76,29.56,18,4,20,0.00
2013-6-30,84,76,71,72,70,67,91,80,64,29.98,29.77,11,4,16,0.00
2013-7-1,85,76,72,74,72,70,94,85,68,30.12,29.98,16,3,22,0.04
2013-7-2,83,74,62,73,69,59,92,84,70,30.25,30.11,10,3,13,0.00
2013-7-3,90,78,64,73,68,61,92,75,53,30.24,30.17,16,4,19,0.00
2013-7-4,93,84,75,75,72,71,90,71,51,30.24,30.13,9,3,16,0.00
2013-7-5,94,86,78,74,72,70,80,65,46,30.19,30.07,13,4,16,0.00
2013-7-6,92,84,78,73,71,63,81,66,46,30.11,30.00,11,4,17,0.00
2013-7-7,92,83,76,74,69,63,82,63,48,30.06,29.93,8,3,13,0.00
2013-7-8,83,76,68,74,70,64,89,81,71,30.10,29.95,10,3,13,0.00
2013-7-9,73,69,66,66,64,63,94,87,78,30.15,30.09,6,2,9,0.01
2013-7-10,87,75,66,74,70,64,96,85,64,30.12,29.84,14,3,21,0.02
2013-7-11,82,78,74,73,71,68,91,81,66,29.95,29.82,9,2,11,0.18
2013-7-12,75,71,66,70,61,55,87,71,56,30.24,29.96,15,5,19,0.00
2013-7-13,74,69,66,69,65,62,92,86,79,30.35,30.24,7,3,10,0.00
2013-7-14,92,80,70,75,71,65,95,75,43,30.34,30.24,9,2,12,0.00
2013-7-15,90,83,77,74,71,68,83,67,49,30.23,30.13,8,2,10,0.00
2013-7-16,92,83,76,73,68,65,75,61,43,30.20,30.14,9,2,13,0.00
2013-7-17,95,85,77,73,69,65,76,60,37,30.21,30.03,9,3,16,0.00
2013-7-18,91,82,79,74,71,67,78,69,49,30.05,29.98,16,4,16,0.00
2013-7-19,97,88,79,78,74,70,83,65,43,29.98,29.75,15,4,20,0.00
2013-7-20,94,86,80,76,73,63,83,66,45,29.83,29.68,9,3,21,0.00
2013-7-21,80,75,72,68,64,59,87,69,56,30.03,29.84,11,4,14,0.02
2013-7-22,76,72,70,69,67,65,90,84,72,30.06,29.93,14,3,15,0.00
2013-7-23,81,73,69,75,70,67,97,92,79,29.92,29.58,7,2,13,1.78
2013-7-24,86,78,70,72,67,56,95,70,50,29.98,29.62,11,3,16,0.00
2013-7-25,68,62,60,59,54,49,92,76,59,30.14,29.99,9,3,15,0.47
2013-7-26,71,66,61,67,62,59,94,89,80,30.10,29.96,10,2,14,1.01
2013-7-27,84,73,62,66,63,59,91,72,46,30.10,30.03,9,2,14,0.00
2013-7-28,77,71,67,69,67,65,93,87,76,30.06,30.01,7,2,11,0.00
2013-7-29,83,73,67,71,68,65,96,83,61,30.07,30.00,9,2,19,0.32
2013-7-30,82,74,66,67,58,52,94,61,36,30.13,30.07,12,3,14,0.00
2013-7-31,80,74,67,63,59,55,75,62,45,30.17,30.08,7,2,11,0.00
2013-8-1,82,72,66,65,62,59,87,71,49,30.09,29.93,9,2,17,0.00
2013-8-2,83,73,66,67,62,56,93,69,41,29.93,29.83,11,3,18,0.19
2013-8-3,80,73,67,64,62,59,84,69,51,29.91,29.82,9,3,16,0.00
2013-8-4,80,71,64,60,56,51,73,59,38,29.92,29.80,9,2,17,0.00
2013-8-5,76,68,60,53,47,40,73,50,29,30.09,29.92,11,4,19,0.00
2013-8-6,77,69,59,57,50,43,68,52,36,30.19,30.09,9,2,12,0.00
2013-8-7,81,70,61,60,54,46,87,59,33,30.23,30.16,14,3,15,0.00
2013-8-8,81,73,66,70,65,53,90,78,61,30.18,30.05,11,3,14,0.10
2013-8-9,76,74,72,74,71,69,95,91,88,30.07,29.79,9,3,18,1.64
2013-8-10,83,76,69,72,61,53,93,62,37,30.05,29.83,18,4,19,0.00
2013-8-11,79,71,62,59,53,46,73,54,39,30.12,30.04,9,2,13,0.00
2013-8-12,82,73,64,65,58,50,81,60,38,30.07,29.96,13,2,17,0.00
2013-8-13,76,71,68,66,63,60,83,77,62,29.96,29.73,7,1,12,0.00
2013-8-14,74,68,64,64,54,49,88,61,43,30.00,29.71,16,6,26,0.00
2013-8-15,77,68,59,53,50,46,76,56,36,30.15,30.00,11,3,18,0.00
2013-8-16,80,70,61,58,53,49,75,56,35,30.23,30.15,8,3,17,0.00
2013-8-17,75,70,63,60,56,52,77,63,46,30.32,30.23,8,3,12,0.00
2013-8-18,80,72,65,62,58,53,80,63,41,30.31,30.13,6,2,11,0.00
2013-8-19,82,73,63,61,59,55,83,62,41,30.13,29.99,9,3,13,0.00
2013-8-20,87,78,68,63,60,57,76,57,37,30.13,30.02,8,2,12,0.00
2013-8-21,89,79,69,65,62,60,74,58,40,30.18,30.06,10,2,12,0.00
2013-8-22,87,77,70,71,67,63,87,70,50,30.07,29.86,13,3,18,0.00
2013-8-23,77,73,68,69,59,50,88,63,47,30.16,29.86,10,3,17,0.00
2013-8-24,72,67,61,51,46,39,65,48,31,30.37,30.17,13,3,14,0.00
2013-8-25,83,71,60,56,52,45,74,52,31,30.40,30.23,7,3,14,0.00
2013-8-26,82,73,67,66,61,56,77,67,52,30.23,29.91,11,3,22,0.00
2013-8-27,77,72,69,69,67,64,93,83,68,29.94,29.87,7,2,11,0.05
2013-8-28,78,69,63,67,64,62,96,84,66,30.02,29.90,9,2,13,0.00
2013-8-29,67,64,62,64,61,57,95,89,83,30.12,30.00,15,3,15,0.00
2013-8-30,83,71,63,68,63,58,86,75,56,30.07,29.86,10,3,13,0.00
2013-8-31,83,75,69,73,70,67,92,85,71,29.88,29.83,10,3,13,0.00
2013-9-1,80,74,70,75,71,67,93,89,80,29.93,29.83,7,2,12,0.68
2013-9-2,82,75,71,74,71,68,95,88,73,29.91,29.76,13,2,20,0.08
2013-9-3,81,75,68,71,67,59,94,79,62,29.85,29.73,7,3,14,0.00
2013-9-4,80,71,62,59,56,53,83,60,40,29.96,29.84,12,4,16,0.00
2013-9-5,68,64,59,61,56,45,87,74,56,30.18,29.90,9,2,13,0.12
2013-9-6,69,60,52,45,41,36,70,52,32,30.29,30.13,7,2,13,0.00
2013-9-7,80,66,53,56,49,44,75,55,34,30.14,29.90,11,3,15,0.00
2013-9-8,75,67,58,60,51,40,79,59,35,30.14,29.79,13,3,21,0.00
2013-9-9,69,60,52,50,43,38,74,55,35,30.28,30.14,10,2,12,0.00
2013-9-10,76,68,58,69,61,50,89,80,72,30.20,30.07,10,3,17,0.05
2013-9-11,96,82,70,76,71,67,94,73,41,30.11,29.97,10,3,15,0.00
2013-9-12,87,78,68,73,70,66,93,78,59,30.01,29.72,15,5,20,0.61
2013-9-13,80,70,61,68,64,54,95,81,56,29.79,29.60,9,2,12,0.50
2013-9-14,66,62,58,54,52,50,79,71,60,30.10,29.80,9,3,14,0.00
2013-9-15,71,62,53,51,49,44,86,64,40,30.20,30.10,9,2,13,0.00
2013-9-16,68,60,51,53,49,38,80,67,54,30.29,30.06,8,2,15,0.01
2013-9-17,62,54,44,43,38,33,73,56,40,30.46,30.29,8,2,14,0.00
2013-9-18,74,62,50,49,43,39,77,54,29,30.37,30.19,8,2,12,0.00
2013-9-19,76,65,54,55,50,46,77,61,44,30.18,30.07,6,2,8,0.00
2013-9-20,74,65,55,58,55,51,86,70,51,30.13,30.05,11,2,11,0.00
2013-9-21,76,67,58,65,60,55,94,79,56,30.07,29.78,13,3,19,0.00
2013-9-22,71,66,55,67,56,46,91,73,45,29.87,29.66,16,4,20,0.38
2013-9-23,62,55,49,45,41,38,73,61,48,30.05,29.87,12,4,20,0.00
2013-9-24,67,55,45,45,41,39,78,61,39,30.04,29.86,8,2,17,0.00
2013-9-25,62,57,50,48,46,43,76,67,55,30.02,29.93,9,2,13,0.00
2013-9-26,62,59,55,50,48,45,74,67,58,30.17,30.02,10,2,13,0.00
2013-9-27,65,60,57,52,50,48,78,69,58,30.30,30.17,11,2,15,0.00
2013-9-28,69,60,54,56,53,50,90,77,58,30.37,30.29,8,2,11,0.00
2013-9-29,63,57,52,54,52,48,94,82,61,30.31,30.17,8,2,10,0.00
2013-9-30,64,57,51,54,50,48,95,79,60,30.17,30.01,11,2,12,0.00
2013-10-1,77,63,52,55,51,46,89,67,36,30.01,29.89,10,2,14,0.00
2013-10-2,80,70,60,60,57,54,80,65,49,29.99,29.86,15,4,20,0.00
2013-10-3,78,69,60,57,50,43,77,53,31,30.12,29.99,7,2,12,0.00
2013-10-4,66,63,60,57,52,48,84,69,58,30.12,30.08,5,1,8,0.10
2013-10-5,68,63,60,58,56,52,87,78,60,30.17,30.10,9,2,9,0.00
2013-10-6,62,58,55,57,55,53,95,90,79,30.27,30.16,8,3,15,0.39
2013-10-7,77,68,58,70,64,53,97,87,71,30.17,29.88,14,4,27,0.02
2013-10-8,66,60,55,54,43,36,73,55,35,30.41,29.95,13,3,17,0.00
2013-10-9,59,55,51,48,44,40,80,66,53,30.51,30.41,15,4,15,0.00
2013-10-10,60,55,49,53,50,45,88,82,71,30.41,30.22,13,2,13,0.00
2013-10-11,66,59,53,55,50,43,92,75,51,30.22,30.15,8,2,11,0.00
2013-10-12,60,57,55,56,52,48,92,83,73,30.44,30.19,17,5,19,0.00
2013-10-13,59,55,50,49,46,44,84,74,61,30.49,30.41,12,3,14,0.00
2013-10-14,64,53,43,51,44,33,90,74,33,30.45,30.30,6,1,8,0.00
2013-10-15,64,58,52,54,50,48,86,78,62,30.31,30.23,9,2,12,0.00
2013-10-16,61,57,54,56,53,51,91,86,78,30.23,29.96,7,2,8,0.00
2013-10-17,72,62,54,60,57,53,95,84,62,29.96,29.77,11,2,12,0.00
2013-10-18,67,62,55,61,50,41,94,67,43,29.95,29.66,15,4,25,0.03
2013-10-19,66,58,49,47,42,38,72,58,37,30.02,29.80,11,2,14,0.00
2013-10-20,62,56,51,51,40,31,87,57,33,30.06,29.73,17,4,23,0.00
2013-10-21,68,56,45,44,39,34,72,55,36,30.16,30.05,11,2,14,0.00
2013-10-22,68,57,49,52,46,37,89,68,48,30.05,29.74,11,2,15,0.00
2013-10-23,52,49,44,37,33,30,71,56,44,29.84,29.63,10,2,11,0.00
2013-10-24,53,47,41,34,29,22,69,51,32,29.93,29.68,13,4,23,0.00
2013-10-25,49,44,38,33,28,26,75,55,40,30.20,29.93,9,3,18,0.00
2013-10-26,56,46,35,36,30,24,79,56,30,30.20,29.93,16,3,21,0.00
2013-10-27,54,49,44,39,33,27,84,57,39,30.11,29.87,10,3,20,0.03
2013-10-28,58,47,38,34,30,24,74,54,38,30.39,30.11,13,3,26,0.00
2013-10-29,48,41,35,34,28,22,79,60,44,30.49,30.39,6,2,10,0.00
2013-10-30,53,44,38,42,37,32,85,76,60,30.41,30.24,6,1,8,0.05
2013-10-31,63,53,40,60,49,38,92,86,76,30.29,29.84,12,2,17,0.04
2013-11-1,72,65,61,63,58,54,92,77,63,29.83,29.50,28,6,41,0.06
2013-11-2,67,59,53,54,45,39,83,63,36,29.76,29.63,7,1,14,0.00
2013-11-3,53,43,34,47,31,16,90,66,37,30.46,29.76,13,2,14,0.07
2013-11-4,42,36,31,25,20,16,64,52,35,30.75,30.47,9,2,13,0.00
2013-11-5,49,40,32,36,28,22,72,62,43,30.77,30.57,6,2,8,0.00
2013-11-6,61,51,42,51,42,33,87,70,47,30.57,30.09,12,3,18,0.00
2013-11-7,67,55,43,58,50,31,91,82,61,30.09,29.72,12,4,22,0.30
2013-11-8,47,41,36,32,26,21,68,55,43,30.14,29.86,13,5,23,0.00
2013-11-9,45,40,34,28,23,20,67,52,37,30.25,30.09,13,4,21,0.00
2013-11-10,56,48,42,42,36,28,86,64,46,30.08,29.77,15,3,20,0.04
2013-11-11,52,46,40,33,27,23,62,49,32,30.14,29.89,14,5,27,0.00
2013-11-12,49,37,29,39,24,15,86,61,48,30.23,29.94,13,4,20,0.12
2013-11-13,36,30,25,16,13,10,67,51,36,30.33,30.22,13,5,19,0.00
2013-11-14,51,40,29,24,19,15,58,44,32,30.21,30.08,13,3,19,0.00
2013-11-15,61,49,38,34,22,15,63,37,19,30.24,30.15,9,2,13,0.00
2013-11-16,60,49,44,37,29,23,74,49,24,30.36,30.23,6,2,9,0.00
2013-11-17,57,50,42,56,45,36,96,83,70,30.36,29.90,4,1,9,0.06
2013-11-18,66,60,50,62,48,32,97,67,40,29.88,29.58,12,4,22,0.20
2013-11-19,50,41,32,31,21,16,55,46,37,30.32,29.70,23,6,28,0.00
2013-11-20,42,35,30,16,13,10,55,42,28,30.67,30.32,14,3,17,0.00
2013-11-21,47,39,28,31,20,14,65,47,32,30.69,30.43,8,2,13,0.00
2013-11-22,48,45,42,46,41,31,94,86,66,30.42,29.86,6,1,8,0.25
2013-11-23,49,42,31,46,25,14,90,55,32,29.94,29.82,18,6,27,0.00
2013-11-24,30,24,21,17,3,-6,67,41,25,30.23,29.83,30,10,41,0.00
2013-11-25,33,26,18,17,2,-8,55,37,19,30.41,30.24,15,5,19,0.00
2013-11-26,43,37,31,41,23,16,94,58,42,30.38,30.09,8,2,15,0.10
2013-11-27,63,52,38,61,50,32,97,92,80,30.07,29.25,21,5,30,1.98
2013-11-28,38,32,26,32,15,4,79,52,33,30.48,29.50,21,6,29,0.00
2013-11-29,33,28,23,15,10,4,61,48,33,30.80,30.48,10,3,15,0.00
2013-11-30,33,27,20,23,15,7,68,60,52,30.84,30.50,6,2,8,0.00
2013-12-1,45,39,33,40,34,24,95,85,69,30.49,30.05,6,2,11,0.25
2013-12-2,40,38,36,38,36,35,95,92,89,30.05,29.97,5,2,9,0.00
2013-12-3,49,40,36,36,34,31,95,80,54,29.99,29.89,7,3,12,0.00
2013-12-4,44,39,34,31,28,24,83,67,51,30.25,29.99,8,2,15,0.00
2013-12-5,56,47,38,54,42,29,95,83,67,30.25,29.96,6,1,9,0.00
2013-12-6,56,50,35,55,44,29,95,81,50,30.18,29.90,11,3,16,0.31
2013-12-7,40,35,31,32,26,18,92,70,51,30.50,30.11,13,4,19,0.13
2013-12-8,31,29,27,19,14,11,62,54,46,30.64,30.50,8,2,14,0.00
2013-12-9,42,35,27,41,32,14,95,90,53,30.55,29.92,11,3,16,0.50
2013-12-10,37,33,26,34,28,15,92,83,60,30.05,29.82,11,4,20,0.03
2013-12-11,30,26,23,19,18,16,76,69,61,30.26,30.05,14,4,20,0.00
2013-12-12,26,22,17,18,6,-1,74,52,34,30.32,30.12,12,4,19,0.00
2013-12-13,29,23,16,17,10,3,70,58,46,30.43,30.05,16,5,23,0.00
2013-12-14,30,18,10,29,7,-6,95,66,46,30.66,30.19,14,4,22,0.00
2013-12-15,37,29,22,36,26,20,97,90,74,30.18,29.45,22,7,30,0.75
2013-12-16,28,25,20,22,13,6,81,60,41,30.26,29.80,14,5,25,0.00
2013-12-17,23,17,10,21,10,-1,92,75,58,30.34,29.99,8,2,14,0.00
2013-12-18,34,26,17,21,19,14,90,74,53,30.13,29.91,10,4,19,0.00
2013-12-19,44,36,27,27,23,20,76,61,46,30.16,30.00,11,3,21,0.04
2013-12-20,54,44,37,37,32,26,71,63,51,30.17,29.95,8,2,14,0.00
2013-12-21,59,50,44,48,44,34,88,78,67,30.00,29.91,9,2,15,0.00
2013-12-22,55,44,36,53,42,34,96,92,84,30.08,29.84,10,2,13,0.00
2013-12-23,39,35,33,36,34,32,97,95,87,30.14,30.02,5,1,12,0.72
2013-12-24,39,33,28,36,21,13,87,61,46,30.24,30.09,14,3,18,0.00
2013-12-25,27,20,15,14,4,-1,61,51,41,30.60,30.24,15,3,21,0.00
2013-12-26,35,29,20,32,22,3,93,78,48,30.56,30.12,8,2,12,0.01
2013-12-27,34,30,26,23,20,18,81,66,53,30.32,30.24,10,4,17,0.00
2013-12-28,48,37,27,27,24,21,78,62,43,30.27,30.04,8,2,18,0.00
2013-12-29,44,40,36,41,33,26,95,77,63,30.08,29.43,10,2,19,1.36
2013-12-30,42,34,20,34,23,9,91,66,38,30.21,29.55,17,4,22,0.00
2013-12-31,26,20,14,14,4,-7,68,52,39,30.23,30.08,9,3,16,0.00
2014-1-1,27,23,19,9,7,4,58,49,41,30.44,30.24,14,3,18,0.00
2014-1-2,23,14,2,20,10,-2,89,84,54,30.41,29.89,9,3,18,0.00